| time (UTC) | temp F | wind direction | speed MPH | gust MPH | rain 1hr in | rain 24hr in | rain mn in | humidity % | barometer mb |
| 20260502163037 | 67 | 4 | 0.0 | 0.0 | 0.00 | 0.00 | 0.00 | 51 | 1011.5 |
| 20260502161530 | 67 | 4 | 0.0 | 0.0 | 0.00 | 0.00 | 0.00 | 52 | 1011.5 |
| 20260502151522 | 63 | 8 | 0.0 | 0.0 | 0.00 | 0.00 | 0.00 | 58 | 1011.4 |
| 20260502123049 | 56 | 4 | 0.0 | 0.0 | 0.00 | 0.00 | 0.00 | 71 | 1010.9 |
| 20260502121549 | 56 | 4 | 0.0 | 0.0 | 0.00 | 0.00 | 0.00 | 71 | 1010.6 |
| 20260502120104 | 56 | 4 | 0.0 | 0.0 | 0.00 | 0.00 | 0.00 | 70 | 1010.7 |
| 20260502114610 | 56 | 4 | 0.0 | 0.0 | 0.00 | 0.00 | 0.00 | 70 | 1010.7 |
| 20260502113045 | 56 | 4 | 0.0 | 0.0 | 0.00 | 0.00 | 0.00 | 70 | 1010.7 |
| 20260502111544 | 56 | 4 | 0.0 | 0.0 | 0.00 | 0.00 | 0.00 | 70 | 1010.7 |
| 20260502110042 | 56 | 4 | 0.0 | 0.0 | 0.00 | 0.00 | 0.00 | 70 | 1010.5 |
| 20260502104541 | 56 | 4 | 0.0 | 1.0 | 0.00 | 0.00 | 0.00 | 69 | 1010.5 |
| 20260502103039 | 57 | 4 | 1.0 | 5.0 | 0.00 | 0.00 | 0.00 | 68 | 1010.4 |
| 20260502101555 | 56 | 359 | 0.0 | 0.0 | 0.00 | 0.00 | 0.00 | 69 | 1010.4 |
| 20260502091531 | 58 | 359 | 0.0 | 0.0 | 0.00 | 0.00 | 0.00 | 65 | 1010.4 |
| 20260502071519 | 61 | 359 | 0.0 | 0.0 | 0.00 | 0.00 | 0.00 | 61 | 1010.3 |
| 20260502070016 | 61 | 359 | 0.0 | 0.0 | 0.00 | 0.00 | 0.00 | 60 | 1010.2 |
| 20260502064535 | 62 | 359 | 0.0 | 1.0 | 0.00 | 0.00 | 0.00 | 60 | 1010.3 |
| 20260502063020 | 62 | 359 | 0.0 | 0.0 | 0.00 | 0.00 | 0.00 | 59 | 1010.3 |
| 20260502061516 | 62 | 341 | 0.0 | 0.0 | 0.00 | 0.00 | 0.00 | 60 | 1010.3 |
| 20260502060028 | 63 | 359 | 0.0 | 0.0 | 0.00 | 0.00 | 0.00 | 58 | 1010.1 |
| 20260502054513 | 64 | 359 | 0.0 | 0.0 | 0.00 | 0.00 | 0.00 | 58 | 1010.2 |
| 20260502053013 | 64 | 359 | 0.0 | 0.0 | 0.00 | 0.00 | 0.00 | 56 | 1010.2 |
| 20260502051513 | 65 | 359 | 0.0 | 0.0 | 0.00 | 0.00 | 0.00 | 55 | 1010.2 |
| 20260502050019 | 65 | 359 | 0.0 | 1.0 | 0.00 | 0.00 | 0.00 | 55 | 1010.1 |
| 20260502044513 | 66 | 359 | 0.0 | 1.0 | 0.00 | 0.00 | 0.00 | 55 | 1010.0 |
| 20260502043012 | 66 | 341 | 1.0 | 3.0 | 0.00 | 0.00 | 0.00 | 54 | 1010.0 |
| 20260502041513 | 68 | 359 | 0.0 | 0.0 | 0.00 | 0.00 | 0.00 | 54 | 1009.9 |
| 20260502040015 | 69 | 359 | 0.0 | 1.0 | 0.00 | 0.00 | 0.00 | 52 | 1009.8 |
| 20260502034510 | 70 | 359 | 0.0 | 2.0 | 0.00 | 0.00 | 0.00 | 49 | 1009.8 |
| 20260502033019 | 72 | 359 | 0.0 | 1.0 | 0.00 | 0.00 | 0.00 | 45 | 1009.7 |
| 20260502031510 | 73 | 359 | 0.0 | 0.0 | 0.00 | 0.00 | 0.00 | 43 | 1009.6 |
| 20260502030009 | 74 | 341 | 0.0 | 0.0 | 0.00 | 0.00 | 0.00 | 43 | 1009.3 |
| 20260502024513 | 75 | 359 | 0.0 | 0.0 | 0.00 | 0.00 | 0.00 | 41 | 1009.3 |
| 20260502023008 | 76 | 359 | 0.0 | 3.0 | 0.00 | 0.00 | 0.00 | 40 | 1009.2 |
| 20260502021506 | 77 | 340 | 1.0 | 3.0 | 0.00 | 0.00 | 0.00 | 36 | 1009.2 |
| 20260502020005 | 78 | 359 | 0.0 | 3.0 | 0.00 | 0.00 | 0.00 | 33 | 1009.4 |
| 20260502014503 | 79 | 359 | 0.0 | 3.0 | 0.00 | 0.00 | 0.00 | 31 | 1009.5 |
| 20260502013002 | 80 | 359 | 0.0 | 3.0 | 0.00 | 0.00 | 0.00 | 31 | 1009.6 |
| 20260502011502 | 80 | 359 | 0.0 | 2.0 | 0.00 | 0.00 | 0.00 | 30 | 1009.7 |
| 20260502010110 | 81 | 328 | 0.0 | 4.0 | 0.00 | 0.00 | 0.00 | 28 | 1009.8 |
| 20260502004558 | 82 | 317 | 0.0 | 4.0 | 0.00 | 0.00 | 0.00 | 27 | 1009.9 |
| 20260502003157 | 82 | 359 | 0.0 | 6.0 | 0.00 | 0.00 | 0.00 | 26 | 1009.9 |
| 20260502001556 | 83 | 316 | 1.0 | 8.0 | 0.00 | 0.00 | 0.00 | 26 | 1010.0 |
| 20260502000054 | 83 | 262 | 0.0 | 4.0 | 0.00 | 0.00 | 0.00 | 26 | 1010.1 |
| 20260501234553 | 84 | 275 | 0.0 | 3.0 | 0.00 | 0.00 | 0.00 | 24 | 1010.1 |
| 20260501233101 | 84 | 354 | 1.0 | 4.0 | 0.00 | 0.00 | 0.00 | 24 | 1010.3 |
| 20260501231548 | 84 | 359 | 1.0 | 5.0 | 0.00 | 0.00 | 0.00 | 24 | 1010.4 |
| 20260501230049 | 83 | 4 | 1.0 | 6.0 | 0.00 | 0.00 | 0.00 | 25 | 1010.6 |
| 20260501224544 | 84 | 15 | 1.0 | 3.0 | 0.00 | 0.00 | 0.00 | 26 | 1010.8 |
| 20260501223042 | 83 | 20 | 0.0 | 0.0 | 0.00 | 0.00 | 0.00 | 26 | 1011.0 |
| 20260501221537 | 82 | 21 | 0.0 | 5.0 | 0.00 | 0.00 | 0.00 | 26 | 1011.3 |
| 20260501220038 | 81 | 22 | 0.0 | 6.0 | 0.00 | 0.00 | 0.00 | 28 | 1011.5 |
| 20260501214533 | 80 | 40 | 0.0 | 2.0 | 0.00 | 0.00 | 0.00 | 28 | 1011.9 |
| 20260501213034 | 80 | 25 | 0.0 | 4.0 | 0.00 | 0.00 | 0.00 | 29 | 1012.2 |
| 20260501211525 | 80 | 25 | 0.0 | 0.0 | 0.00 | 0.00 | 0.00 | 29 | 1012.5 |
| 20260501210021 | 80 | 25 | 0.0 | 3.0 | 0.00 | 0.00 | 0.00 | 29 | 1012.8 |
| 20260501204536 | 78 | 27 | 0.0 | 4.0 | 0.00 | 0.00 | 0.00 | 32 | 1013.0 |
| 20260501203016 | 77 | 37 | 0.0 | 0.0 | 0.00 | 0.00 | 0.00 | 32 | 1013.2 |
| 20260501201516 | 77 | 39 | 0.0 | 4.0 | 0.00 | 0.00 | 0.00 | 34 | 1013.5 |
| 20260501200013 | 77 | 4 | 0.0 | 0.0 | 0.00 | 0.00 | 0.00 | 35 | 1013.5 |
| 20260501194509 | 76 | 4 | 0.0 | 5.0 | 0.00 | 0.00 | 0.00 | 34 | 1013.7 |
| 20260501193006 | 75 | 52 | 0.0 | 0.0 | 0.00 | 0.00 | 0.00 | 34 | 1013.9 |
| 20260501191503 | 74 | 59 | 0.0 | 0.0 | 0.00 | 0.00 | 0.00 | 38 | 1014.1 |
| 20260501190059 | 73 | 56 | 0.0 | 0.0 | 0.00 | 0.00 | 0.00 | 37 | 1014.3 |
| 20260501184556 | 72 | 144 | 0.0 | 0.0 | 0.00 | 0.00 | 0.00 | 37 | 1014.5 |
| 20260501183104 | 71 | 52 | 0.0 | 0.0 | 0.00 | 0.00 | 0.00 | 37 | 1014.5 |
| 20260501181551 | 70 | 48 | 0.0 | 0.0 | 0.00 | 0.00 | 0.00 | 36 | 1014.8 |
| 20260501180049 | 69 | 50 | 0.0 | 0.0 | 0.00 | 0.00 | 0.00 | 38 | 1014.8 |